TimeCET,TemperatureF,Dew PointF,Humidity,Sea Level PressureIn,VisibilityMPH,Wind Direction,Wind SpeedMPH,Gust SpeedMPH,PrecipitationIn,Events,Conditions,WindDirDegrees,DateUTC
12:00 AM,42,39,86,30.31,,ENE,2.3,,,,,60,2014-03-08 23:00:00
12:00 AM,41.0,35.6,81,30.30,-9999.0,ENE,9.2,-,N/A,,Clear,60,2014-03-08 23:00:00
12:30 AM,42.8,39.2,87,30.27,-9999.0,NE,9.2,-,N/A,,Clear,40,2014-03-08 23:30:00
1:00 AM,46,44,91,30.29,9,NNE,2.3,,,,,30,2014-03-09 00:00:00
1:00 AM,46.4,44.6,93,30.27,-9999.0,NE,8.1,-,N/A,,Clear,40,2014-03-09 00:00:00
1:30 AM,46.4,42.8,87,30.27,-9999.0,NNE,10.4,-,N/A,,Clear,20,2014-03-09 00:30:00
2:00 AM,41,38,87,30.29,,North,2.3,,,,,10,2014-03-09 01:00:00
2:00 AM,41.0,39.2,93,30.27,-9999.0,NE,6.9,-,N/A,,Clear,40,2014-03-09 01:00:00
2:30 AM,41.0,39.2,93,30.27,-9999.0,NE,8.1,-,N/A,,Clear,50,2014-03-09 01:30:00
3:00 AM,44,42,90,30.28,,East,9.2,,,,,90,2014-03-09 02:00:00
3:00 AM,42.8,41.0,93,30.27,-9999.0,ENE,8.1,-,N/A,,Clear,60,2014-03-09 02:00:00
3:30 AM,44.6,41.0,87,30.27,-9999.0,ENE,8.1,-,N/A,,Clear,60,2014-03-09 02:30:00
4:00 AM,43,40,84,30.27,11,ENE,8.1,,,,,70,2014-03-09 03:00:00
4:00 AM,44.6,41.0,87,30.27,-9999.0,NE,6.9,-,N/A,,Clear,50,2014-03-09 03:00:00
4:30 AM,44.6,41.0,87,30.24,-9999.0,ENE,9.2,-,N/A,,Clear,70,2014-03-09 03:30:00
5:00 AM,46,43,85,30.27,,East,10.4,,,,,80,2014-03-09 04:00:00
5:00 AM,44.6,42.8,93,30.24,-9999.0,ENE,9.2,-,N/A,,Clear,70,2014-03-09 04:00:00
5:30 AM,46.4,42.8,87,30.27,-9999.0,ENE,10.4,-,N/A,,Clear,70,2014-03-09 04:30:00
6:00 AM,45,43,90,30.29,,East,8.1,,,,,80,2014-03-09 05:00:00
6:00 AM,44.6,42.8,93,30.27,-9999.0,ENE,9.2,-,N/A,,Clear,70,2014-03-09 05:00:00
6:30 AM,44.6,42.8,93,30.27,-9999.0,ENE,9.2,-,N/A,,Clear,70,2014-03-09 05:30:00
7:00 AM,45,43,90,30.29,7,ENE,8.1,,,,,70,2014-03-09 06:00:00
7:00 AM,44.6,42.8,93,30.27,-9999.0,ENE,10.4,-,N/A,,Clear,70,2014-03-09 06:00:00
7:30 AM,44.6,42.8,93,30.27,-9999.0,ENE,6.9,-,N/A,,Clear,70,2014-03-09 06:30:00
8:00 AM,45,43,92,30.30,,ENE,4.6,,,,,70,2014-03-09 07:00:00
8:00 AM,44.6,42.8,93,30.27,-9999.0,ENE,6.9,-,N/A,,Clear,70,2014-03-09 07:00:00
8:30 AM,48.2,46.4,93,30.30,6.2,ENE,4.6,-,N/A,,Partly Cloudy,70,2014-03-09 07:30:00
9:00 AM,54,48,72,30.32,,East,4.6,,,,,80,2014-03-09 08:00:00
9:00 AM,53.6,48.2,82,30.30,6.2,ENE,5.8,-,N/A,,Partly Cloudy,70,2014-03-09 08:00:00
9:30 AM,57.2,50.0,77,30.30,6.2,ENE,6.9,-,N/A,,Partly Cloudy,70,2014-03-09 08:30:00
10:00 AM,58,47,58,30.32,19,NE,15.0,,,,Scattered Clouds,50,2014-03-09 09:00:00
10:00 AM,59.0,50.0,72,30.30,6.2,ENE,10.4,-,N/A,,Partly Cloudy,60,2014-03-09 09:00:00
10:30 AM,59.0,48.2,67,30.30,6.2,ENE,11.5,-,N/A,,Partly Cloudy,60,2014-03-09 09:30:00
11:00 AM,61,45,45,30.32,,ENE,16.1,,,,,60,2014-03-09 10:00:00
11:00 AM,60.8,46.4,59,30.30,6.2,ENE,13.8,-,N/A,,Partly Cloudy,60,2014-03-09 10:00:00
11:30 AM,60.8,48.2,63,30.30,6.2,ENE,13.8,-,N/A,,Partly Cloudy,60,2014-03-09 10:30:00
12:00 PM,62,44,41,30.31,,ENE,15.0,,,,,70,2014-03-09 11:00:00
12:00 PM,60.8,44.6,55,30.30,6.2,ENE,16.1,-,N/A,,Partly Cloudy,60,2014-03-09 11:00:00
12:30 PM,62.6,46.4,55,30.30,6.2,ENE,11.5,-,N/A,,Partly Cloudy,70,2014-03-09 11:30:00
1:00 PM,62.6,44.6,52,30.30,6.2,ENE,10.4,-,N/A,,Partly Cloudy,70,2014-03-09 12:00:00
1:30 PM,62.6,46.4,55,30.27,6.2,NE,13.8,-,N/A,,Partly Cloudy,40,2014-03-09 12:30:00
2:00 PM,64,44,37,30.28,,ENE,13.8,,,,,60,2014-03-09 13:00:00
2:00 PM,62.6,44.6,52,30.27,6.2,ENE,11.5,-,N/A,,Partly Cloudy,60,2014-03-09 13:00:00
2:30 PM,64.4,46.4,52,30.27,6.2,NE,12.7,-,N/A,,Partly Cloudy,50,2014-03-09 13:30:00
3:00 PM,64,44,38,30.27,,ENE,12.7,,,,,60,2014-03-09 14:00:00
3:00 PM,62.6,46.4,55,30.27,6.2,NE,12.7,-,N/A,,Partly Cloudy,50,2014-03-09 14:00:00
3:30 PM,62.6,44.6,52,30.27,6.2,NE,12.7,-,N/A,,Partly Cloudy,50,2014-03-09 14:30:00
4:00 PM,64,43,35,30.27,19,NE,13.8,,,,Scattered Clouds,50,2014-03-09 15:00:00
4:00 PM,62.6,44.6,52,30.27,6.2,ENE,11.5,-,N/A,,Partly Cloudy,70,2014-03-09 15:00:00
4:30 PM,62.6,46.4,55,30.27,6.2,ENE,12.7,-,N/A,,Partly Cloudy,60,2014-03-09 15:30:00
5:00 PM,62,45,43,30.26,,ENE,13.8,,,,,70,2014-03-09 16:00:00
5:00 PM,60.8,46.4,59,30.24,6.2,ENE,12.7,-,N/A,,Partly Cloudy,60,2014-03-09 16:00:00
5:30 PM,60.8,46.4,59,30.24,6.2,NE,11.5,-,N/A,,Partly Cloudy,50,2014-03-09 16:30:00
6:00 PM,60,45,47,30.26,,ENE,13.8,,,,,70,2014-03-09 17:00:00
6:00 PM,59.0,46.4,63,30.24,6.2,ENE,11.5,-,N/A,,Partly Cloudy,70,2014-03-09 17:00:00
6:30 PM,57.2,46.4,67,30.24,6.2,ENE,9.2,-,N/A,,Partly Cloudy,70,2014-03-09 17:30:00
7:00 PM,56,46,60,30.27,19,East,5.8,,,,Scattered Clouds,90,2014-03-09 18:00:00
7:00 PM,55.4,46.4,72,30.24,6.2,ENE,5.8,-,N/A,,Partly Cloudy,70,2014-03-09 18:00:00
7:30 PM,53.6,46.4,77,30.27,6.2,Variable,1.2,-,N/A,,Partly Cloudy,0,2014-03-09 18:30:00
8:00 PM,53,46,71,30.27,,East,1.2,,,,,100,2014-03-09 19:00:00
8:00 PM,53.6,44.6,72,30.24,6.2,Variable,1.2,-,N/A,,Partly Cloudy,0,2014-03-09 19:00:00
8:30 PM,51.8,44.6,76,30.24,-9999.0,Calm,Calm,-,N/A,,Clear,0,2014-03-09 19:30:00
9:00 PM,49,45,82,30.28,,NE,2.3,,,,,40,2014-03-09 20:00:00
9:00 PM,48.2,44.6,87,30.27,-9999.0,Calm,Calm,-,N/A,,Clear,0,2014-03-09 20:00:00
9:30 PM,48.2,44.6,87,30.27,-9999.0,ENE,1.2,-,N/A,,Clear,60,2014-03-09 20:30:00
10:00 PM,47,45,88,30.27,12,North,1.2,,,,,350,2014-03-09 21:00:00
10:00 PM,48.2,44.6,87,30.27,-9999.0,Variable,1.2,-,N/A,,Clear,0,2014-03-09 21:00:00
10:30 PM,44.6,41.0,87,30.27,-9999.0,Variable,2.3,-,N/A,,Clear,0,2014-03-09 21:30:00
11:00 PM,43,41,91,30.28,,ENE,2.3,,,,,70,2014-03-09 22:00:00
11:00 PM,44.6,41.0,87,30.27,-9999.0,Calm,Calm,-,N/A,,Clear,0,2014-03-09 22:00:00
11:30 PM,42.8,41.0,93,30.27,-9999.0,NE,3.5,-,N/A,,Clear,40,2014-03-09 22:30:00